Location: Cottonwood Creek
(38.2361°N, 99.9749°W)
Time: 16:36:47
(UTC+00:00)

Daily predictions for brighter satellites

Satellite Brightness Start Highest point End
(mag) Time Altitude Azimuth Time Altitude Azimuth Time Altitude Azimuth
H-2A R/B 3.0 12:02:11 10° NNE 12:05:51 64° E 12:09:32 10° S
Cosmos 1844 Rocket 3.4 12:13:00 31° WSW 12:13:00 31° WSW 12:17:26 10° SSW
SAR-Lupe-4 3.8 12:12:18 10° SSE 12:15:51 70° ENE 12:18:45 15° N
Cosmos 1892 Rocket 3.4 12:12:46 18° NNW 12:16:00 73° W 12:20:21 10° S
Cosmos 2278 Rocket 3.1 12:12:38 10° NNW 12:18:09 48° ENE 12:23:35 10° SE
CZ-4B R/B 3.1 12:15:35 10° SSW 12:16:57 21° SSW 12:16:57 21° SSW
Cosmos 540 Rocket 3.6 12:14:57 10° S 12:20:01 73° ESE 12:25:08 10° NNE
Cosmos 990 Rocket 3.8 12:16:53 14° NNW 12:21:22 84° WSW 12:26:30 10° SSE
Cosmos 2333 Rocket 2.9 12:24:13 29° WNW 12:25:10 30° WNW 12:30:08 10° N
Cosmos 2237 Rocket 2.4 12:20:03 10° SSW 12:25:39 76° ESE 12:31:21 10° NNE
PSLV R/B 3.8 12:22:17 10° SSE 12:26:22 86° WSW 12:30:30 10° NNW
COSMO-SKYMED 1 2.8 12:22:31 10° S 12:26:40 44° W 12:29:01 23° NW
SAR-Lupe-1 3.9 12:23:24 10° SSE 12:26:58 85° WSW 12:30:08 13° NNW
Cosmos 1461 3.1 12:23:26 13° SW 12:27:27 60° WNW 12:32:11 10° NNE
Cosmos 1953 2.2 12:24:45 10° S 12:28:44 87° W 12:32:44 10° N
USA 276 2.1 12:28:30 49° W 12:29:04 62° SW 12:32:09 10° SE
Cosmos 921 Rocket 3.3 12:28:47 10° SW 12:32:49 39° WNW 12:36:50 10° N
MOS 1 Rocket 3.4 12:28:29 10° S 12:33:35 61° W 12:38:26 10° NNW
Cosmos 2219 Rocket 2.9 12:31:49 24° W 12:33:41 29° WNW 12:38:30 10° N
CZ-2C R/B 3.9 12:29:14 10° SE 12:34:00 39° ENE 12:38:54 10° N
SJ 16-02 2.3 12:36:30 25° W 12:37:00 26° W 12:40:36 10° SSW
Cosmos 1763 Rocket 4.0 12:37:37 10° SW 12:42:17 35° WNW 12:47:04 10° N
GPS 2-04 Rocket1 3.7 12:40:52 20° WSW 12:43:14 38° SSW 12:47:06 10° SE
Cosmos 44 Rocket 4.0 12:39:11 10° NNW 12:44:21 57° ENE 12:49:27 10° SE
COSMOS 2428 3.5 12:40:28 13° WSW 12:44:43 29° WNW 12:49:37 10° N
Cosmos 1898 Rocket 3.5 12:40:44 10° NNW 12:45:49 58° WSW 12:50:51 10° S
ATLAS 5 CENTAUR R/B 1.6 12:44:29 21° NW 12:46:10 90° SW 12:52:26 10° SE
Cosmos 841 Rocket 3.4 12:41:28 10° SSW 12:46:34 68° WNW 12:51:42 10° NNE
Cosmos 1544 Rocket 3.7 12:43:00 10° SSW 12:47:10 48° W 12:51:22 10° N
BREEZE-M DEB (TANK) 4.0 12:41:51 10° SSW 12:47:46 42° SE 12:50:13 10° ENE
YAOGAN 6 2.7 12:44:19 10° N 12:47:55 54° WNW 12:51:32 10° SSW
Cosmos 1689 Rocket 2.6 12:46:36 10° S 12:49:19 36° W 12:51:09 17° NW
Cosmos 1908 3.0 12:45:49 10° SSW 12:49:36 74° W 12:53:24 10° N
Cosmos 1570 Rocket 3.9 12:46:00 10° SSW 12:51:12 76° WNW 12:56:27 10° NNE
Okean 1-7 Rocket 3.9 12:48:29 10° NNW 12:52:48 44° W 12:57:04 10° SSW
ERS-2 3.4 12:54:05 10° SSW 12:56:58 22° W 12:58:57 15° NW
OAO 2 Rocket 3.6 12:53:34 12° WSW 12:57:58 60° S 13:02:50 10° E
Cosmos 1980 3.8 12:52:35 10° SW 12:58:07 54° WNW 13:03:39 10° NNE
GEOS 3 Rocket 4.3 12:54:31 10° S 12:59:28 39° WSW 13:04:30 10° NW
CZ-4B R/B 4.1 12:58:54 10° NNW 13:01:13 16° WNW 13:03:32 10° WSW
NOSS 0 Rocket 4.2 12:56:23 10° SW 13:02:15 44° WNW 13:08:08 10° NNE
Lacrosse 4 Rocket 2.0 13:02:36 10° SSW 13:06:43 63° ESE 13:10:57 10° NNE
Cosmos 2208 Rocket 4.1 13:03:24 10° SSW 13:08:48 65° WNW 13:14:14 10° NNE
Cosmos 17264.313:11:10NW13:11:10NW13:05:41WSW
FALCON 9 DEB 3.7 13:06:39 10° WSW 13:09:51 37° NW 13:13:03 10° NE
Cosmos 1626 Rocket 3.7 13:05:29 10° NNW 13:09:51 55° W 13:14:12 10° S
CZ-4B DEB 4.3 13:07:02 10° N 13:12:29 57° WNW 13:17:53 10° SSW
SMAP 3.0 13:08:39 10° N 13:13:17 73° WNW 13:17:55 10° SSW
Cosmos 2228 3.6 13:13:22 10° S 13:17:35 62° E 13:21:46 10° NNE
Spot 2 4.3 13:16:27 10° N 13:20:15 40° WNW 13:24:02 10° SW
Cosmos 1814 Rocket 4.3 13:15:41 10° SW 13:20:35 44° WNW 13:25:30 10° N
Cosmos 1703 3.6 13:18:02 10° NNW 13:21:45 43° W 13:25:27 10° SSW
Cosmos 1937 Rocket 4.1 13:18:17 10° NW 13:23:05 36° W 13:27:49 10° SSW
NOAA 6 4.4 13:18:53 10° N 13:23:45 42° WNW 13:28:35 10° SW
Cosmos 1939 Rocket 3.3 13:20:14 10° NNE 13:24:09 66° E 13:27:59 10° S
Cosmos 1346 Rocket 3.5 13:20:15 10° N 13:24:10 59° E 13:28:05 10° SSE
Envisat 3.8 13:21:41 10° N 13:25:59 28° WNW 13:30:16 10° SW
CENTAUR R/B 3.3 13:21:43 10° SSW 13:27:09 55° ESE 13:33:33 10° NE
